Location: Berlin
(38.3226°N, 75.2177°W)
Time: 01:46:21
(UTC+00:00)

Cosmos 2082 - Visible Passes

Search period start: 27 February 2021 00:00
Search period end: 09 March 2021 00:00
Orbit: 834 x 854 km, 71.0° (Epoch: 26 February)

Date Brightness Start Highest point End Pass type
(mag) Time Alt. Az. Time Alt. Az. Time Alt. Az.
27 Feb 5.1 23:37:55 10° NW 23:43:12 43° WSW 23:48:26 10° S visible
28 Feb 5.0 23:23:40 10° NW 23:28:58 44° WSW 23:34:15 10° S visible
08 Mar 4.9 10:50:03 10° S 10:55:28 48° ESE 11:00:52 10° NE visible
